Regional Weather Roundup
Issued by NWS Midland/Odessa, TX

Skip options and go directly to product.
Home | Oldest Version | Previous Version | Current Version | All | Text Only | Save Text | Print | Product List | Glossary Off

Skip product version selection by date and time.   

948
ASUS44 KMAF 111710
RWRMAF
MIDLAND AREA WEATHER ROUNDUP
NATIONAL WEATHER SERVICE MIDLAND TX
1100 AM CST THU FEB 11 2016

...IN SOUTHWEST TEXAS AND SOUTHEAST NEW MEXICO...

CITY           SKY/WX    TMP DP  RH WIND       PRES   REMARKS
ALPINE         SUNNY     68  15  12 W9        30.32R
ANDREWS        FAIR      56  21  26 N8        30.18S
ARTESIA        SUNNY     59  19  21 N18       30.25S
BIG SPRING     SUNNY     52  24  32 NW5       30.19S
CARLSBAD       SUNNY     58  19  22 NW20      30.24S
DRYDEN           N/A     72  19  13 W16G24    30.17S
FORT STOCKTON  SUNNY     71  19  14 W12       30.20S
GUAD PASS      SUNNY     52  16  24 SW12      30.30R
HOBBS          SUNNY     55  19  24 N14G22    30.21S
MARFA          SUNNY     65  14  14 W9        30.30S
MIDLAND AIRPK  SUNNY     59  22  23 N7        30.19S
MIDLAND INTL   SUNNY     60  22  23 NW8       30.18S
ODESSA         SUNNY     61  21  21 W7        30.18F
PECOS          SUNNY     60  23  24 NW12      30.22S
PRESIDIO       FAIR      58  19  21 E6        30.27S
SEMINOLE       SUNNY     54  23  29 N12G18    30.20S
SNYDER           N/A     56  23  28 NE8       30.16S
WINK           SUNNY     61  23  23 NW8       30.19S
$$
...OTHER STATIONS IN TEXAS...

CITY           SKY/WX    TMP DP  RH WIND       PRES   REMARKS
ABILENE        SUNNY     64  30  27 N7        30.15R
AMARILLO       SUNNY     53  26  35 VRB5      30.25R
AUSTIN         SUNNY     73  39  29 SW13      30.17S
BROWNSVILLE    SUNNY     73  52  47 S20G33    30.24S
CORPUS CHRISTI SUNNY     74  46  36 S22       30.21S
DALLAS FTW     MOSUNNY   67  27  22 W7        30.11S
DEL RIO        SUNNY     61  30  31 CALM      30.18F
EL PASO        SUNNY     54  20  26 CALM      30.28S
HOUSTON INT    SUNNY     70  48  45 W13G21    30.20S
LUBBOCK        MOSUNNY   57  26  30 NE15      30.20R
SAN ANGELO     SUNNY     71  27  19 SW14      30.14F
SAN ANTONIO    SUNNY     68  38  33 SW13      30.21R
WACO           SUNNY     69  37  30 SE8       30.13S
WICHITA FALLS  NOT AVBL
$$
...OTHER LOCATIONS IN NEW MEXICO...

CITY           SKY/WX    TMP DP  RH WIND       PRES   REMARKS
ALAMAGORDO     SUNNY     50  19  29 S3        30.28F
ALBUQUERQUE    SUNNY     48  20  32 N8        30.38R
CANNON AFB     NOT AVBL
CLOVIS         SUNNY     55  25  30 NE12      30.27R
HOLLOMAN AFB   SUNNY     56  19  24 SW3       30.27S
ROSWELL        SUNNY     61  16  17 N20       30.25S
RUIDOSO          N/A     55   3  12 NW7       30.36S
SANTA FE       SUNNY     44  18  35 N14       30.35R WCI  37
TRUTH OR CONSE SUNNY     54  16  22 VRB3      30.32S
TUCUMCARI      SUNNY     55  19  24 VRB3      30.26R
$$

USA.gov is the U.S. government's official web portal to all federal, state and local government web resources and services.